Terminal Aerodrome Forecast
Issued by NWS Boston, MA

Home | Current Version | Previous Version | Text Only | Print | Product List | Glossary On
Versions: 1 2 3 4 5 6 7 8 9 10 11 12 13 14 15 16 17 18 19 20 21 22 23 24 25 26 27 28 29 30 31 32 33 34 35 36 37 38 39 40 41 42 43 44 45 46 47 48 49 50
000
FTUS41 KBOX 280152 AAA
TAFPVD
TAF AMD
KPVD 280152Z 2802/2824 19006KT P6SM BKN110
     FM280300 19006KT P6SM SCT250
     FM280900 VRB03KT 5SM BR BKN010
     FM281300 22005KT P6SM BKN250
     FM281400 21005KT P6SM VCSH BKN250
     FM281800 19009KT P6SM VCSH BKN250=

USA.gov is the U.S. government's official web portal to all federal, state and local government web resources and services.